Regional Weather Roundup
Issued by NWS Northern Indiana

Home | Current Version | Previous Version | Graphics & Text | Print | Product List | Glossary On
Versions: 1 2 3 4 5 6 7 8 9 10 11 12 13 14 15 16 17 18 19 20 21 22 23 24 25 26 27 28 29 30 31 32 33 34 35 36 37 38 39 40 41 42 43 44 45 46 47 48 49 50
000
ASUS43 KIWX 260910
RWRIWX

KIWX WEATHER ROUNDUP
NATIONAL WEATHER SERVICE NORTHERN INDIANA
400 AM EST MON JAN 26 2015

NOTE: "FAIR" INDICATES FEW OR NO CLOUDS BELOW 12,000 FEET WITH NO
SIGNIFICANT WEATHER AND/OR OBSTRUCTIONS TO VISIBILITY.

* THESE STATIONS ARE NOT UNDER NWS QUALITY CONTROL. THEY ALSO MAY NOT
  REPORT WEATHER SUCH AS PRECIPITATION OR FOG.

INZ001>027-261000-
NORTHERN INDIANA

CITY           SKY/WX    TMP DP  RH WIND       PRES   REMARKS
GARY*          CLEAR     22  12  65 NE5       29.97F WCI  16
VALPARAISO     CLEAR     14   9  80 CALM      29.96F
MICHIGAN CITY* CLEAR     18   9  68 E5        29.96F WCI  11
LAPORTE*       PTCLDY    15  10  80 NE5       29.96F WCI   7
KNOX*          CLEAR     13   2  63 NE3       29.95F
SOUTH BEND     CLEAR     14   7  73 CALM      29.96F
GOSHEN         CLEAR     12   6  77 NE5       29.94S WCI   4
MONTICELLO*    CLEAR     19  15  84 N6        29.95R WCI  11
LOGANSPORT*    CLEAR     19  12  73 N9        29.94S WCI   9
ROCHESTER*     CLEAR     19  10  68 N5        29.95S WCI  13
WARSAW*          N/A    N/A N/A N/A MISG        N/A
ANGOLA*        CLEAR     10   7  85 N3        29.91S
FORT WAYNE     MOCLDY    19   9  65 N9        29.93R WCI   8
HUNTINGTON*    PTCLDY    17   6  61 N5        29.92S WCI  10
PERU/GRISSOM   MOCLDY    15  11  82 NE6       29.92S WCI   7
MARION*        CLOUDY    20  13  74 N12       29.92R WCI   7

$$
INZ028>050-261000-
CENTRAL INDIANA

CITY           SKY/WX    TMP DP  RH WIND       PRES   REMARKS
LAFAYETTE      MOCLDY    23  18  81 N7        29.95S WCI  15
KOKOMO*        MOCLDY    19  12  73 NE7       29.93R WCI  10
MUNCIE*        CLOUDY    19  13  77 NE15      29.89R WCI   5
INDIANAPOLIS   CLOUDY    20  15  81 N16       29.90R WCI   6

$$
MIZ043>046-050>051-056>058-064>065-071>073-077>080-261000-
SOUTHWEST LOWER MICHIGAN

CITY           SKY/WX    TMP DP  RH WIND       PRES   REMARKS
BATTLE CREEK   CLEAR     13   7  77 NE5       29.95S WCI   5
BENTON HARBOR  CLEAR     12   8  84 CALM      29.97F
COLDWATER*     FAIR      12   8  83 NE6       29.93S WCI   2
HILLSDALE*     CLEAR     12   8  84 N5        29.90S WCI   4
HOLLAND        CLEAR     13   7  77 NE5       29.99F WCI   5
GRAND RAPIDS   PTCLDY    11   7  84 N5        29.98S WCI   3
KALAMAZOO      CLEAR     13   7  77 NE3       29.96S
STURGIS*       CLEAR     10   7  85 N5        29.94R WCI   2
THREE RIVERS*  FAIR      13   8  81 CALM      29.96R

$$
OHZ001>008-015>018-024>025-261000-
NORTHWEST OHIO

CITY           SKY/WX    TMP DP  RH WIND       PRES   REMARKS
WAUSEON*       FAIR      14   3  62 N10       29.92R WCI   1
DEFIANCE       PTCLDY    17   6  62 N8        29.92S WCI   7
FINDLAY        LGT SNOW  17  11  77 N14       29.85F WCI   3
TOLEDO EXPRESS MOCLDY    16   5  62 N10       29.91S WCI   4
TOLEDO METCALF MOCLDY    16   5  62 NE10G21   29.92S WCI   4
LIMA           LGT SNOW  16  11  80 N13       29.84S WCI   2

$$
AND FOR LAKE MICHIGAN COASTAL AND OPEN LAKE BUOY OBSERVATIONS

STATION/POSITION TEMP    WIND        PRES    VSBY  WAVE
                 AIR SEA DIR/SP/G                  HT/PER
                 (F)     (DEG/KT/KT) (MB)    (MI)  (FT/S)
CALUMET HARBOR    23      40/  7/ 10   N/A
MICHIGAN CITY     17      60/  7/  8   N/A
SAINT JOSEPH      14      CALM  /  2 1015.6R

$$
&&



USA.gov is the U.S. government's official web portal to all federal, state and local government web resources and services.